Location: Unspecified
(42.3650°N, 71.1030°W)
Time: 16:00:24
(UTC+00:00)

Transit 4A - Pass Details

Date: 27 June 2024
Orbit: 870 x 973 km, 66.8° (Epoch: 17 July)

Event Time Altitude Azimuth Distance (km) Brightness Sun altitude
Rises 02:07:43 0° 214° (SW) 3,461 10.7 -14.7°
Reaches altitude 10° 02:10:13 10° 216° (SW) 2,519 10.0 -15.0°
Maximum altitude 02:16:01 74° 302° (WNW) 907 8.0 -15.6°
Drops below altitude 10° 02:21:50 10° 27° (NNE) 2,527 10.5 -16.2°
Sets 02:24:21 0° 30° (NNE) 3,473 11.3 -16.5°
